Highgate, VT

3:51 AM EST on December 17, 2017 (GMT -0500)
Franklin County State

Weather History for KFSO - May, 2014

Change the Weather History Date:

Friday, May 16, 2014

  Actual Average (KPBG) Record (KPBG)
Temperature  
Mean Temperature 68 °F -  
Max Temperature 76 °F 67 °F 91 °F (1991)
Min Temperature 58 °F 47 °F 34 °F (1957)
Cooling Degree Days 4    
Growing Degree Days 18 (Base 50)    
Moisture  
Dew Point 60 °F    
Average Humidity 61    
Maximum Humidity 86    
Minimum Humidity 51    
Precipitation  
Precipitation 0.00 in - - ()
Sea Level Pressure  
Sea Level Pressure 29.89 in    
Wind  
Wind Speed 13 mph (SSE)    
Max Wind Speed 23 mph    
Max Gust Speed 34 mph    
Visibility 10 miles    
Events Rain    
Averages and records for this station are not official NWS values.
T = Trace of Precipitation, MM = Missing Value Source: NWS Daily Summary

Daily Weather History Graph

Daily Weather History Graph

Search for Another Location

Airport or City:

Trip Planner

Search our weather history database for the weather conditions in past years. The results will help you decide how hot, cold, wet, or windy it might be!

Date:

Astronomy

May. 16, 2014 Rise Set
Actual Time 5:22 AM EDT 8:15 PM EDT
Civil Twilight 4:48 AM EDT 8:50 PM EDT
Nautical Twilight 4:04 AM EDT 9:34 PM EDT
Astronomical Twilight 3:13 AM EDT 10:25 PM EDT
Moon 10:19 PM EDT (5/16) 7:01 AM EDT (5/16)
Length of Visible Light 16h 01m
Length of Day
14h 53m
Waning Gibbous, 95% of the Moon is Illuminated
May 16
Waning Gibbous
May 21
Last Quarter
May 28
New
Jun 5
First Quarter
Jun 13
Full

Hourly Weather History & Observations

Time (EDT) Temp. Dew Point Humidity Pressure Visibility Wind Dir Wind Speed Gust Speed Precip Events Conditions
12:15 AM 76.1 °F 61.5 °F 60% 30.00 in 10.0 mi South 9.2 mph 18.4 mph N/A   Scattered Clouds
12:35 AM 76.1 °F 61.2 °F 60% 30.00 in 10.0 mi SSE 11.5 mph - N/A   Mostly Cloudy
12:55 AM 76.1 °F 61.7 °F 61% 30.00 in 10.0 mi SSE 11.5 mph - N/A   Mostly Cloudy
1:15 AM 76.1 °F 61.0 °F 59% 29.99 in 10.0 mi South 12.7 mph 17.3 mph N/A   Overcast
1:35 AM 76.1 °F 60.1 °F 57% 29.99 in 10.0 mi South 11.5 mph 17.3 mph N/A   Overcast
2:15 AM 76.1 °F 60.8 °F 59% 29.98 in 10.0 mi South 10.4 mph - N/A   Overcast
2:35 AM 76.1 °F 60.4 °F 58% 29.97 in 10.0 mi SSE 10.4 mph 21.9 mph N/A   Mostly Cloudy
2:55 AM 76.1 °F 61.7 °F 61% 29.97 in 10.0 mi SSE 8.1 mph - N/A   Mostly Cloudy
3:15 AM 73.8 °F 59.9 °F 62% 29.96 in 10.0 mi SSE 11.5 mph 18.4 mph N/A   Scattered Clouds
3:35 AM 73.6 °F 60.3 °F 63% 29.96 in 10.0 mi SSE 10.4 mph - N/A   Clear
3:55 AM 73.6 °F 60.1 °F 63% 29.95 in 10.0 mi SSE 11.5 mph 20.7 mph N/A   Scattered Clouds
4:15 AM 73.6 °F 60.1 °F 63% 29.94 in 10.0 mi SSE 12.7 mph 18.4 mph N/A   Clear
4:35 AM 73.0 °F 59.7 °F 63% 29.94 in 10.0 mi SSE 13.8 mph - N/A   Clear
4:55 AM 72.5 °F 59.4 °F 63% 29.93 in 10.0 mi SSE 11.5 mph 17.3 mph N/A   Clear
5:15 AM 72.5 °F 59.2 °F 63% 29.93 in 10.0 mi SSE 12.7 mph 19.6 mph N/A   Scattered Clouds
5:35 AM 73.6 °F 60.1 °F 63% 29.92 in 10.0 mi SSE 13.8 mph 18.4 mph N/A   Scattered Clouds
5:55 AM 73.6 °F 59.9 °F 62% 29.92 in 10.0 mi SSE 17.3 mph 25.3 mph N/A   Scattered Clouds
6:15 AM 73.8 °F 59.7 °F 61% 29.92 in 10.0 mi SSE 9.2 mph 17.3 mph N/A   Clear
6:35 AM 74.7 °F 59.9 °F 60% 29.92 in 10.0 mi SSE 15.0 mph 21.9 mph N/A   Scattered Clouds
6:55 AM 76.1 °F 60.3 °F 58% 29.92 in 10.0 mi SSE 19.6 mph 25.3 mph N/A   Scattered Clouds
7:15 AM 76.1 °F 58.3 °F 54% 29.92 in 10.0 mi South 18.4 mph 29.9 mph N/A   Scattered Clouds
7:35 AM 76.1 °F 60.1 °F 57% 29.91 in 10.0 mi SSE 20.7 mph - N/A   Clear
7:55 AM 76.1 °F 59.9 °F 57% 29.90 in 10.0 mi SSE 17.3 mph 24.2 mph N/A   Clear
8:15 AM 76.1 °F 58.8 °F 55% 29.91 in 10.0 mi SSE 18.4 mph 21.9 mph N/A   Scattered Clouds
8:35 AM 76.1 °F 58.8 °F 55% 29.90 in 10.0 mi SSE 13.8 mph 19.6 mph N/A   Scattered Clouds
8:55 AM 76.1 °F 58.5 °F 54% 29.91 in 10.0 mi SSE 18.4 mph 24.2 mph N/A   Scattered Clouds
9:15 AM 76.1 °F 58.3 °F 54% 29.91 in 10.0 mi SSE 13.8 mph - N/A   Mostly Cloudy
9:35 AM 76.1 °F 57.9 °F 53% 29.90 in 10.0 mi SSE 18.4 mph 27.6 mph N/A   Scattered Clouds
9:55 AM 76.1 °F 58.1 °F 54% 29.90 in 10.0 mi SE 13.8 mph 18.4 mph N/A   Scattered Clouds
10:15 AM 76.1 °F 57.4 °F 52% 29.90 in 10.0 mi SE 11.5 mph 20.7 mph N/A   Mostly Cloudy
10:35 AM 76.1 °F 56.8 °F 51% 29.90 in 10.0 mi SE 17.3 mph 25.3 mph N/A   Overcast
10:55 AM 76.1 °F 57.6 °F 53% 29.90 in 10.0 mi SSE 18.4 mph 25.3 mph N/A   Overcast
11:15 AM 76.1 °F 57.7 °F 53% 29.90 in 10.0 mi SSE 20.7 mph 25.3 mph N/A   Overcast
11:35 AM 76.1 °F 58.3 °F 54% 29.90 in 10.0 mi SSE 17.3 mph 26.5 mph N/A   Overcast
11:55 AM 76.1 °F 58.1 °F 54% 29.90 in 10.0 mi SSE 21.9 mph 28.8 mph N/A   Overcast
12:15 PM 76.1 °F 57.9 °F 53% 29.89 in 10.0 mi SSE 17.3 mph 27.6 mph N/A   Overcast
12:35 PM 76.1 °F 58.1 °F 54% 29.89 in 10.0 mi SSE 19.6 mph 26.5 mph N/A   Overcast
12:55 PM 76.1 °F 58.1 °F 54% 29.89 in 10.0 mi South 20.7 mph 28.8 mph N/A   Overcast
1:15 PM 76.1 °F 57.9 °F 53% 29.88 in 10.0 mi SSE 19.6 mph 25.3 mph N/A   Overcast
1:35 PM 76.1 °F 58.1 °F 54% 29.88 in 10.0 mi SSE 16.1 mph 29.9 mph N/A   Overcast
1:55 PM 76.1 °F 58.1 °F 54% 29.87 in 10.0 mi SSE 19.6 mph 27.6 mph N/A   Overcast
2:15 PM 76.1 °F 58.3 °F 54% 29.87 in 10.0 mi SSE 20.7 mph 31.1 mph N/A   Overcast
2:35 PM 76.1 °F 58.8 °F 55% 29.88 in 10.0 mi South 18.4 mph 34.5 mph N/A   Overcast
2:55 PM 76.1 °F 59.0 °F 55% 29.87 in 10.0 mi SE 23.0 mph 29.9 mph N/A   Overcast
3:15 PM 76.1 °F 59.2 °F 56% 29.86 in 10.0 mi SSE 19.6 mph 31.1 mph N/A   Scattered Clouds
3:35 PM 76.1 °F 59.2 °F 56% 29.86 in 10.0 mi SSE 21.9 mph 29.9 mph N/A   Clear
3:55 PM 76.1 °F 59.9 °F 57% 29.86 in 10.0 mi SSE 19.6 mph 29.9 mph N/A   Mostly Cloudy
4:15 PM 76.1 °F 60.1 °F 57% 29.85 in 10.0 mi SSE 18.4 mph 28.8 mph N/A   Mostly Cloudy
4:35 PM 76.1 °F 60.3 °F 58% 29.85 in 10.0 mi SSE 19.6 mph 26.5 mph N/A   Mostly Cloudy
4:55 PM 76.1 °F 60.1 °F 57% 29.85 in 10.0 mi SSE 19.6 mph 29.9 mph N/A   Mostly Cloudy
5:15 PM 76.1 °F 60.3 °F 58% 29.85 in 10.0 mi SSE 17.3 mph 24.2 mph N/A   Mostly Cloudy
5:35 PM 76.1 °F 61.2 °F 60% 29.84 in 10.0 mi SE 12.7 mph 24.2 mph N/A   Light Drizzle
5:55 PM 76.1 °F 61.3 °F 60% 29.84 in 10.0 mi SE 12.7 mph 18.4 mph N/A   Overcast
6:15 PM 76.1 °F 61.9 °F 61% 29.83 in 10.0 mi SE 11.5 mph - N/A   Overcast
6:35 PM 73.8 °F 60.3 °F 63% 29.83 in 10.0 mi SSE 12.7 mph 19.6 mph N/A Rain Light Rain
6:55 PM 73.0 °F 60.6 °F 65% 29.84 in 10.0 mi SSE 10.4 mph 19.6 mph N/A   Light Drizzle
7:15 PM 72.5 °F 60.4 °F 66% 29.84 in 10.0 mi SE 9.2 mph 19.6 mph N/A   Overcast
7:35 PM 71.1 °F 60.3 °F 69% 29.84 in 10.0 mi SE 10.4 mph - N/A   Overcast
7:55 PM 71.1 °F 60.3 °F 69% 29.84 in 10.0 mi SE 9.2 mph - N/A   Mostly Cloudy
8:15 PM 71.1 °F 60.4 °F 69% 29.84 in 10.0 mi SE 11.5 mph - N/A   Overcast
8:35 PM 71.1 °F 61.0 °F 70% 29.83 in 10.0 mi SE 8.1 mph - N/A   Overcast
8:55 PM 71.1 °F 61.3 °F 71% 29.84 in 10.0 mi SE 8.1 mph - N/A Rain Rain
9:15 PM 71.1 °F 63.5 °F 77% 29.83 in 10.0 mi ESE 5.8 mph - N/A Rain Light Rain
9:35 PM 71.1 °F 64.6 °F 80% 29.83 in 10.0 mi ESE 5.8 mph - N/A   Overcast
9:55 PM 71.1 °F 64.4 °F 79% 29.81 in 10.0 mi ESE 10.4 mph - N/A   Overcast
10:15 PM 71.1 °F 63.5 °F 77% 29.80 in 10.0 mi SE 11.5 mph - N/A   Overcast
10:35 PM 71.1 °F 62.6 °F 75% 29.79 in 10.0 mi SE 9.2 mph - N/A   Overcast
10:55 PM 71.1 °F 61.7 °F 72% 29.79 in 10.0 mi SE 10.4 mph 19.6 mph N/A   Overcast
11:15 PM 71.1 °F 61.2 °F 71% 29.80 in 10.0 mi West 8.1 mph - N/A   Overcast
11:35 PM 61.0 °F 55.6 °F 82% 29.81 in 10.0 mi WNW 6.9 mph - N/A   Overcast
11:55 PM 58.5 °F 54.1 °F 86% 29.84 in 10.0 mi WNW 6.9 mph - N/A   Overcast